Location: Prachin Buri
(14.0500°N, 101.3670°E)
Time: 22:31:13
(UTC+07:00)

ISS - Visible Passes

Search period start: 19 November 2018 00:00
Search period end: 29 November 2018 00:00
Orbit: 401 x 408 km, 51.6° (Epoch: 20 November)

Date Brightness Start Highest point End Pass type
(mag) Time Alt. Az. Time Alt. Az. Time Alt. Az.
19 Nov -1.1 04:32:30 14° NE 04:32:47 14° NE 04:34:38 10° E visible
19 Nov -1.6 19:23:03 10° WSW 19:25:31 21° NW 19:25:31 21° NW visible
20 Nov -3.7 05:15:56 32° WNW 05:17:09 54° SW 05:20:20 10° SSE visible
20 Nov -3.3 18:30:20 10° SW 18:33:32 57° NW 18:36:11 14° NNE visible
21 Nov -1.5 04:26:40 25° ESE 04:26:40 25° ESE 04:28:16 10° SE visible
22 Nov -1.5 05:10:05 13° SW 05:10:05 13° SW 05:11:06 10° SSW visible
22 Nov -1.1 18:23:42 10° W 18:25:47 16° NW 18:27:50 10° N visible
